Location: Hall+in+Tirol
(47.2830°N, 11.5170°E)
Time: 17:04:46
(UTC+02:00)

Amateur Radio Satellites - All Passes

Search period start: 24 April 2017 16:34
Search period end: 25 April 2017 16:34
Location: Hall+in+Tirol, 47.2830°N, 11.5170°E

Satellite Date Start Highest point End Downlink Frequencies (MHz)
Time Altitude Azimuth
SO-50 24 Apr 16:37:19 16:41:45 56° 237° (WSW) 16:46:08 436.795
CUTE-I 24 Apr 16:39:28 16:40:53 11° 51° (NE) 16:42:17 437.470
DOVE 4 24 Apr 16:42:18 16:45:32 17° 58° (ENE) 16:48:44 437.250
BEESAT 24 Apr 16:44:59 16:49:42 65° 288° (WNW) 16:54:25 436.000
Tancredo 1 24 Apr 16:46:22 16:48:35 18° 222° (SW) 16:50:48 437.200
ISS 24 Apr 16:46:33 16:49:13 23° 220° (SW) 16:51:52 437.550
YUBILEINY 24 Apr 16:57:52 17:06:32 69° 267° (W) 17:15:13 435.215
MOZHAYETS 4 24 Apr 17:03:19 17:07:56 79° 284° (WNW) 17:12:32
RS-15 24 Apr 17:03:34 17:15:59 86° 53° (NE) 17:27:49 29.354- 29.394
ITUPSAT 1 24 Apr 17:24:06 17:28:16 31° 295° (WNW) 17:32:26 437.325
ITAMSAT 1 24 Apr 17:32:14 17:33:06 10° 275° (W) 17:33:59 435.822/435.867
KKS-1 24 Apr 17:36:00 17:40:15 43° 99° (E) 17:44:28 437.445
BEESAT 2 24 Apr 17:37:32 17:40:42 22° 323° (NW) 17:43:54 435.950
XW-2D 24 Apr 17:37:53 17:40:51 23° 66° (ENE) 17:43:51 145.860 - 145.880
XW-2B 24 Apr 17:44:32 17:47:41 26° 67° (ENE) 17:50:51 145.730 - 145.750
CUBESAT XI-V 24 Apr 17:46:41 17:51:21 55° 100° (E) 17:55:58 437.345
BEESAT 3 24 Apr 17:47:12 17:48:52 12° 334° (NNW) 17:50:32 437.485
LilacSat-2 24 Apr 17:51:58 17:55:21 33° 69° (ENE) 17:58:46 437.200
XW-2C 24 Apr 17:55:59 17:59:24 34° 70° (ENE) 18:02:50 145.795 - 145.815
KAITUO 1B 24 Apr 18:00:37 18:03:54 31° 69° (ENE) 18:07:12 145.475/437.950
CUTE-I 24 Apr 18:14:37 18:19:52 60° 70° (ENE) 18:25:09 437.470
STARS 24 Apr 18:15:33 18:19:48 49° 100° (E) 18:24:02 437.465
DOVE 4 24 Apr 18:17:13 18:22:32 87° 257° (WSW) 18:27:49 437.250
XW-2F 24 Apr 18:23:15 18:26:56 70° 76° (ENE) 18:30:41 145.980 - 146.000
BEESAT 24 Apr 18:26:04 18:26:34 10° 307° (NW) 18:27:04 436.000
HO-68 24 Apr 18:29:44 18:35:58 34° 58° (ENE) 18:42:13 435.675
MOZHAYETS 4 24 Apr 18:42:47 18:44:19 12° 304° (NW) 18:45:51
NUDT-PHONESAT 24 Apr 18:43:09 18:46:50 82° 257° (WSW) 18:50:31 437.300
YUBILEINY 24 Apr 18:57:16 19:01:36 15° 289° (WNW) 19:05:57 435.215
XW-2D 24 Apr 19:11:37 19:14:56 30° 264° (W) 19:18:16 145.860 - 145.880
CUTE 1.7 + AOD 2 24 Apr 19:12:26 19:16:17 36° 69° (ENE) 19:20:11 437.475
KKS-1 24 Apr 19:13:04 19:16:34 23° 297° (WNW) 19:20:03 437.445
RS-15 24 Apr 19:17:07 19:27:05 31° 257° (WSW) 19:36:42 29.354- 29.394
XW-2B 24 Apr 19:18:39 19:21:50 26° 265° (W) 19:25:01 145.730 - 145.750
AAUSAT CUBESAT 2 24 Apr 19:19:49 19:22:20 16° 61° (ENE) 19:24:52 437.432
CUBESAT XI-V 24 Apr 19:24:52 19:28:20 21° 298° (WNW) 19:31:48 437.345
LilacSat-2 24 Apr 19:26:51 19:29:43 20° 267° (W) 19:32:37 437.200
XW-2C 24 Apr 19:30:58 19:33:43 19° 267° (W) 19:36:28 145.795 - 145.815
O/OREOS (USA 219) 24 Apr 19:34:06 19:37:09 17° 47° (NE) 19:40:11 437.305
KAITUO 1B 24 Apr 19:35:08 19:37:58 21° 267° (W) 19:40:50 145.475/437.950
XW-2A 24 Apr 19:35:35 19:38:54 66° 76° (ENE) 19:42:15 145.665 - 145.685
SEEDS 24 Apr 19:37:29 19:41:27 43° 71° (ENE) 19:45:28 437.485
Oscar 11 24 Apr 19:38:31 19:39:42 11° 57° (ENE) 19:40:54 .
UWE-3 24 Apr 19:43:09 19:46:33 24° 66° (ENE) 19:49:56 435.000/436.395/437.385
CUBEBUG 2 24 Apr 19:49:49 19:53:58 43° 71° (ENE) 19:58:01 437.445
STARS 24 Apr 19:52:37 19:55:50 20° 298° (WNW) 19:59:01 437.465
CUTE-I 24 Apr 19:56:19 20:00:20 21° 269° (W) 20:04:20 437.470
DOVE 4 24 Apr 19:58:28 20:00:55 13° 274° (W) 20:03:21 437.250
M-CUBED/EXP-1 PRIME 24 Apr 20:14:11 20:17:51 26° 99° (E) 20:21:15 437.505
HO-68 24 Apr 20:16:19 20:23:21 59° 258° (WSW) 20:30:27 435.675
DELFI C3 24 Apr 20:29:57 20:30:27 10° 58° (ENE) 20:30:57 145.870
STRAND 1 24 Apr 20:31:47 20:36:49 55° 101° (E) 20:41:49 437.568
AO-85 24 Apr 20:37:41 20:40:11 16° 33° (NNE) 20:42:43 145.980
ZACube-1 24 Apr 20:43:47 20:47:55 57° 72° (ENE) 20:52:00 437.345
CUTE 1.7 + AOD 2 24 Apr 20:48:49 20:52:13 23° 267° (W) 20:55:39 437.475
AO-73 24 Apr 20:52:13 20:56:21 63° 74° (ENE) 21:00:28 145.935
AAUSAT CUBESAT 2 24 Apr 20:53:15 20:57:20 59° 259° (W) 21:01:29 437.432
NO-84 24 Apr 20:54:16 20:57:23 28° 136° (SE) 21:00:16 435.350 FM
BEESAT 3 24 Apr 21:07:47 21:07:57 10° 22° (NNE) 21:08:07 437.485
Oscar 11 24 Apr 21:10:49 21:15:07 84° 73° (ENE) 21:19:27 .
O/OREOS (USA 219) 24 Apr 21:12:32 21:17:08 77° 248° (WSW) 21:21:41 437.305
SEEDS 24 Apr 21:14:19 21:17:22 19° 269° (W) 21:20:26 437.485
UWE-3 24 Apr 21:18:54 21:22:52 36° 263° (W) 21:26:47 435.000/436.395/437.385
CUBEBUG 2 24 Apr 21:27:30 21:30:47 20° 268° (W) 21:34:00 437.445
OBJECT BX 24 Apr 21:46:02 21:49:29 44° 72° (ENE) 21:52:59 145.990 - 145.960
M-CUBED/EXP-1 PRIME 24 Apr 21:48:22 21:52:20 34° 299° (WNW) 21:56:02 437.505
DELFI C3 24 Apr 22:00:34 22:04:32 88° 77° (ENE) 22:08:35 145.870
HO-68 24 Apr 22:11:27 22:12:36 10° 278° (W) 22:13:45 435.675
STRAND 1 24 Apr 22:11:41 22:15:39 23° 299° (WNW) 22:19:36 437.568
TIGRISAT 24 Apr 22:11:55 22:13:47 13° 88° (E) 22:15:38 435.000
ESTCUBE 1 24 Apr 22:13:25 22:15:16 12° 57° (ENE) 22:17:07 437.505/2401.250
AO-85 24 Apr 22:17:10 22:21:09 88° 55° (NE) 22:25:14 145.980
ZACube-1 24 Apr 22:22:08 22:24:33 15° 270° (W) 22:26:58 437.345
AO-73 24 Apr 22:30:58 22:33:01 13° 271° (W) 22:35:04 145.935
UNISAT 6 24 Apr 22:31:13 22:34:31 21° 93° (E) 22:37:50 437.425
NO-84 24 Apr 22:31:29 22:34:49 47° 333° (NNW) 22:37:53 435.350 FM
BEESAT 2 24 Apr 22:36:23 22:39:16 18° 34° (NE) 22:42:08 435.950
BEESAT 3 24 Apr 22:42:57 22:46:42 35° 44° (NE) 22:50:25 437.485
PRISM 24 Apr 22:44:43 22:48:44 44° 99° (E) 22:52:41 437.425
Oscar 11 24 Apr 22:50:56 22:51:51 11° 273° (W) 22:52:47 .
LO-87 24 Apr 22:58:15 23:01:44 44° 72° (ENE) 23:05:13 145.935 - 145.965
FO-29 24 Apr 22:58:16 23:02:52 31° 96° (E) 23:07:36 435.910
OBJECT BX 24 Apr 23:21:21 23:23:26 15° 269° (W) 23:25:30 145.990 - 145.960
DX 1 24 Apr 23:38:27 23:39:40 11° 56° (NE) 23:40:52 434.975-435.025
TIGRISAT 24 Apr 23:46:43 23:50:58 70° 286° (WNW) 23:55:14 435.000
ESTCUBE 1 24 Apr 23:46:50 23:51:20 87° 78° (ENE) 23:55:54 437.505/2401.250
50 SAT 24 Apr 23:50:15 23:52:13 15° 63° (ENE) 23:54:13 437.505
SPROUT 24 Apr 23:56:48 00:00:35 31° 67° (ENE) 00:04:23 437.525
AO-85 25 Apr 00:00:02 00:00:55 11° 250° (WSW) 00:01:49 145.980
UNISAT 6 25 Apr 00:07:24 00:11:24 40° 290° (WNW) 00:15:26 437.425
NO-84 25 Apr 00:10:24 00:12:52 20° 353° (N) 00:15:12 435.350 FM
VELOX 1 25 Apr 00:11:01 00:15:18 48° 70° (ENE) 00:19:37 145.980
EO-79 25 Apr 00:11:03 00:14:06 19° 92° (E) 00:17:07 145.935-145.965
BEESAT 2 25 Apr 00:13:28 00:17:34 83° 234° (SW) 00:21:36 435.950
DUCHIFAT 1 25 Apr 00:16:10 00:19:03 18° 92° (E) 00:21:54 145.980
PRISM 25 Apr 00:20:39 00:23:43 20° 297° (WNW) 00:26:46 437.425
BEESAT 3 25 Apr 00:20:42 00:24:13 29° 243° (WSW) 00:27:42 437.485
LO-87 25 Apr 00:33:20 00:35:25 15° 269° (W) 00:37:31 145.935 - 145.965
FO-29 25 Apr 00:43:21 00:48:06 37° 294° (WNW) 00:52:58 435.910
UKube-1 25 Apr 00:43:26 00:47:14 31° 66° (ENE) 00:51:03 .
POLYITAN 1 25 Apr 00:48:50 00:52:54 46° 99° (E) 00:56:56 437.675
AIST 2D 25 Apr 00:49:29 00:53:00 81° 284° (WNW) 00:56:32 435.315
QB50P2 25 Apr 00:55:15 00:59:25 59° 101° (E) 01:03:34 145.880/145.840
DX 1 25 Apr 01:10:42 01:15:05 80° 74° (ENE) 01:19:30 434.975-435.025
NANOSAT C BR1 25 Apr 01:19:39 01:23:52 90° 299° (WNW) 01:28:03 145.865
50 SAT 25 Apr 01:21:28 01:24:49 44° 260° (W) 01:28:13 437.505
BUGSAT 1 25 Apr 01:27:18 01:30:57 32° 97° (E) 01:34:32 437.445
ESTCUBE 1 25 Apr 01:27:31 01:28:47 11° 273° (W) 01:30:04 437.505/2401.250
SPROUT 25 Apr 01:32:48 01:36:30 28° 265° (W) 01:40:12 437.525
EO-79 25 Apr 01:46:04 01:50:05 44° 290° (WNW) 01:54:04 145.935-145.965
NO-84 25 Apr 01:48:35 01:51:07 24° 15° (NNE) 01:53:34 435.350 FM
VELOX 1 25 Apr 01:48:44 01:52:00 20° 268° (W) 01:55:17 145.980
DUCHIFAT 1 25 Apr 01:50:58 01:54:58 47° 289° (WNW) 01:58:58 145.980
BEESAT 25 Apr 02:17:26 02:21:27 28° 64° (ENE) 02:25:29 436.000
UKube-1 25 Apr 02:19:27 02:23:14 29° 264° (W) 02:27:04 .
Gurwin Techsat 1B 25 Apr 02:19:33 02:23:54 25° 93° (E) 02:28:14 435.225
POLYITAN 1 25 Apr 02:25:21 02:28:23 20° 297° (WNW) 02:31:24 437.675
QB50P2 25 Apr 02:32:10 02:34:47 16° 299° (WNW) 02:37:23 145.880/145.840
MOZHAYETS 4 25 Apr 02:32:39 02:35:48 19° 61° (ENE) 02:38:57
Oscar 19 25 Apr 02:36:26 02:41:35 56° 101° (E) 02:46:41 437.125/150
DX 1 25 Apr 02:50:14 02:51:50 12° 272° (W) 02:53:26 434.975-435.025
ITUPSAT 1 25 Apr 02:55:38 03:00:19 60° 71° (ENE) 03:05:01 437.325
NANOSAT C BR1 25 Apr 02:57:37 02:58:54 11° 303° (WNW) 03:00:12 145.865
BUGSAT 1 25 Apr 03:02:54 03:06:11 25° 294° (WNW) 03:09:27 437.445
PCSat 25 Apr 03:05:42 03:10:38 38° 113° (ESE) 03:15:38 145.827
CUBESAT XI-V 25 Apr 03:19:22 03:20:46 11° 55° (NE) 03:22:11 437.345
NO-84 25 Apr 03:25:59 03:28:54 75° 214° (SW) 03:31:43 435.350 FM
BEESAT 25 Apr 03:54:39 03:59:05 39° 262° (W) 04:03:33 436.000
ITAMSAT 1 25 Apr 03:57:29 04:02:01 30° 95° (E) 04:06:31 435.822/435.867
Gurwin Techsat 1B 25 Apr 03:58:59 04:04:07 51° 291° (WNW) 04:09:15 435.225
YUBILEINY 25 Apr 04:07:29 04:14:40 31° 81° (E) 04:21:53 435.215
MOZHAYETS 4 25 Apr 04:08:03 04:12:32 58° 259° (W) 04:17:04
Oscar 19 25 Apr 04:16:27 04:20:32 24° 299° (WNW) 04:24:37 437.125/150
AO-7 25 Apr 04:22:35 04:30:27 44° 99° (E) 04:38:17 .
ITUPSAT 1 25 Apr 04:35:19 04:38:32 18° 269° (W) 04:41:46 437.325
KKS-1 25 Apr 04:36:39 04:41:03 59° 71° (ENE) 04:45:28 437.445
PCSat 25 Apr 04:48:54 04:54:01 41° 313° (NW) 04:59:11 145.827
CUBESAT XI-V 25 Apr 04:52:41 04:57:19 76° 74° (ENE) 05:02:00 437.345
STARS 25 Apr 05:14:44 05:19:06 65° 73° (ENE) 05:23:29 437.465
M-CUBED/EXP-1 PRIME 25 Apr 05:31:43 05:32:33 10° 48° (NE) 05:33:25 437.505
ITAMSAT 1 25 Apr 05:36:45 05:41:36 41° 293° (WNW) 05:46:25 435.822/435.867
YUBILEINY 25 Apr 06:02:11 06:10:48 67° 283° (WNW) 06:19:31 435.215
STRAND 1 25 Apr 06:13:59 06:17:16 18° 58° (ENE) 06:20:34 437.568
DOVE 4 25 Apr 06:14:17 06:17:48 20° 90° (E) 06:21:09 437.250
KKS-1 25 Apr 06:15:08 06:17:59 16° 269° (W) 06:20:50 437.445
AO-7 25 Apr 06:15:25 06:23:20 51° 300° (WNW) 06:31:15 .
CUTE-I 25 Apr 06:29:22 06:33:00 18° 90° (E) 06:36:36 437.470
CUBESAT XI-V 25 Apr 06:32:55 06:35:15 14° 272° (W) 06:37:36 437.345
PCSat 25 Apr 06:36:17 06:38:56 13° 337° (NNW) 06:41:36 145.827
XW-2D 25 Apr 06:40:54 06:43:53 22° 94° (E) 06:46:52 145.860 - 145.880
XW-2B 25 Apr 06:47:38 06:50:49 25° 95° (E) 06:53:59 145.730 - 145.750
STARS 25 Apr 06:53:25 06:55:53 15° 270° (W) 06:58:21 437.465
SO-50 25 Apr 06:55:04 06:58:35 22° 114° (ESE) 07:02:05 436.795
LilacSat-2 25 Apr 06:55:52 06:59:20 32° 96° (E) 07:02:49 437.200
XW-2C 25 Apr 06:59:12 07:02:42 33° 97° (E) 07:06:11 145.795 - 145.815
M-CUBED/EXP-1 PRIME 25 Apr 07:01:31 07:06:03 58° 66° (ENE) 07:10:40 437.505
KAITUO 1B 25 Apr 07:02:18 07:05:38 29° 96° (E) 07:08:56 145.475/437.950
XW-2F 25 Apr 07:26:09 07:29:56 66° 100° (E) 07:33:44 145.980 - 146.000
RS-15 25 Apr 07:30:32 07:41:20 41° 107° (ESE) 07:52:21 29.354- 29.394
HO-68 25 Apr 07:41:01 07:46:40 24° 91° (E) 07:52:17 435.675
NUDT-PHONESAT 25 Apr 07:44:11 07:47:55 89° 104° (ESE) 07:51:39 437.300
STRAND 1 25 Apr 07:50:45 07:55:51 77° 256° (WSW) 08:01:00 437.568
DOVE 4 25 Apr 07:51:14 07:55:50 48° 290° (WNW) 08:00:08 437.250
YUBILEINY 25 Apr 08:04:25 08:09:37 17° 308° (NW) 08:14:52 435.215
CUTE-I 25 Apr 08:08:16 08:13:33 69° 289° (WNW) 08:18:49 437.470
AO-7 25 Apr 08:09:54 08:14:14 15° 323° (NW) 08:18:35 .
XW-2D 25 Apr 08:14:44 08:18:09 32° 291° (WNW) 08:21:33 145.860 - 145.880
XW-2B 25 Apr 08:21:42 08:25:00 28° 292° (WNW) 08:28:17 145.730 - 145.750
XW-2A 25 Apr 08:26:59 08:30:13 43° 99° (E) 08:33:26 145.665 - 145.685
CUTE 1.7 + AOD 2 25 Apr 08:29:20 08:33:30 47° 99° (E) 08:37:39 437.475
LilacSat-2 25 Apr 08:30:27 08:33:28 23° 294° (WNW) 08:36:31 437.200
AAUSAT CUBESAT 2 25 Apr 08:32:57 08:35:48 18° 91° (E) 08:38:38 437.432
XW-2C 25 Apr 08:33:47 08:36:44 22° 294° (WNW) 08:39:40 145.795 - 145.815
SO-50 25 Apr 08:34:11 08:38:42 57° 312° (NW) 08:43:13 436.795
KAITUO 1B 25 Apr 08:36:28 08:39:32 24° 293° (WNW) 08:42:36 145.475/437.950
M-CUBED/EXP-1 PRIME 25 Apr 08:37:26 08:40:46 20° 264° (W) 08:44:10 437.505
SEEDS 25 Apr 08:53:18 08:57:31 56° 100° (E) 09:01:42 437.485
Oscar 11 25 Apr 08:56:30 08:58:27 13° 88° (E) 09:00:25 .
XW-2F 25 Apr 09:01:59 09:03:35 12° 299° (WNW) 09:05:11 145.980 - 146.000
UWE-3 25 Apr 09:04:48 09:08:34 32° 96° (E) 09:12:22 435.000/436.395/437.385
TIGRISAT 25 Apr 09:13:15 09:16:11 18° 62° (ENE) 09:19:04 435.000
CUBEBUG 2 25 Apr 09:13:27 09:17:35 64° 101° (ESE) 09:21:44 437.445
FO-29 25 Apr 09:14:37 09:19:15 23° 61° (ENE) 09:23:34 435.910
Tancredo 1 25 Apr 09:22:07 09:24:29 20° 139° (SE) 09:26:51 437.200
HO-68 25 Apr 09:27:53 09:35:04 75° 291° (WNW) 09:42:15 435.675
ISS 25 Apr 09:28:28 09:30:52 19° 138° (SE) 09:33:16 437.550
UNISAT 6 25 Apr 09:32:51 09:36:37 28° 66° (ENE) 09:40:19 437.425
STRAND 1 25 Apr 09:34:56 09:35:54 10° 275° (W) 09:36:51 437.568
PRISM 25 Apr 09:36:34 09:40:34 48° 71° (ENE) 09:44:37 437.425
RS-15 25 Apr 09:40:53 09:53:05 74° 312° (NW) 10:05:33 29.354- 29.394
CUTE-I 25 Apr 09:50:34 09:52:39 12° 308° (NW) 09:54:45 437.470
XW-2A 25 Apr 10:00:54 10:02:39 14° 296° (WNW) 10:04:23 145.665 - 145.685
ZACube-1 25 Apr 10:04:36 10:08:49 81° 104° (ESE) 10:13:04 437.345
CUTE 1.7 + AOD 2 25 Apr 10:05:53 10:09:02 20° 297° (WNW) 10:12:10 437.475
PCSat 25 Apr 10:07:18 10:10:51 17° 30° (NNE) 10:14:23 145.827
AAUSAT CUBESAT 2 25 Apr 10:07:28 10:11:32 48° 288° (WNW) 10:15:34 437.432
AO-73 25 Apr 10:12:41 10:16:54 89° 101° (E) 10:21:10 145.935
SO-50 25 Apr 10:17:24 10:20:08 15° 334° (NNW) 10:22:50 436.795
SEEDS 25 Apr 10:30:00 10:32:48 17° 298° (WNW) 10:35:35 437.485
Oscar 11 25 Apr 10:30:44 10:35:06 72° 285° (WNW) 10:39:26 .
UWE-3 25 Apr 10:41:28 10:44:56 26° 294° (WNW) 10:48:27 435.000/436.395/437.385
NANOSAT C BR1 25 Apr 10:41:40 10:43:23 12° 58° (ENE) 10:45:07 145.865
OBJECT BX 25 Apr 10:45:13 10:48:39 37° 98° (E) 10:52:03 145.990 - 145.960
TIGRISAT 25 Apr 10:48:10 10:52:29 55° 260° (W) 10:56:45 435.000
CUBEBUG 2 25 Apr 10:51:26 10:53:45 15° 299° (WNW) 10:56:04 437.445
Tancredo 1 25 Apr 10:57:01 11:00:07 75° 337° (NNW) 11:03:14 437.200
FO-29 25 Apr 10:57:41 11:04:01 67° 258° (WSW) 11:09:39 435.910
ISS 25 Apr 11:03:46 11:07:01 82° 336° (NNW) 11:10:17 437.550
EO-79 25 Apr 11:06:21 11:09:38 22° 64° (ENE) 11:12:56 145.935-145.965
DELFI C3 25 Apr 11:09:05 11:13:08 86° 284° (WNW) 11:17:08 145.870
UNISAT 6 25 Apr 11:09:19 11:13:16 32° 264° (W) 11:17:09 437.425
DUCHIFAT 1 25 Apr 11:10:52 11:14:01 21° 64° (ENE) 11:17:09 145.980
PRISM 25 Apr 11:13:18 11:16:07 17° 268° (W) 11:18:57 437.425
HO-68 25 Apr 11:17:00 11:21:41 19° 311° (NW) 11:26:23 435.675
AIST 2D 25 Apr 11:26:33 11:29:57 55° 74° (ENE) 11:33:23 435.315
O/OREOS (USA 219) 25 Apr 11:27:33 11:32:06 68° 112° (ESE) 11:36:43 437.305
ESTCUBE 1 25 Apr 11:37:22 11:40:01 15° 89° (E) 11:42:37 437.505/2401.250
ZACube-1 25 Apr 11:42:46 11:44:31 12° 301° (WNW) 11:46:16 437.345
POLYITAN 1 25 Apr 11:44:02 11:48:07 52° 72° (ENE) 11:52:13 437.675
PCSat 25 Apr 11:49:57 11:55:22 62° 52° (NE) 12:00:45 145.827
QB50P2 25 Apr 11:50:25 11:54:36 66° 74° (ENE) 11:58:49 145.880/145.840
AO-73 25 Apr 11:51:10 11:52:30 11° 302° (WNW) 11:53:50 145.935
LO-87 25 Apr 11:55:32 11:58:51 35° 97° (E) 12:02:07 145.935 - 145.965
RS-15 25 Apr 11:56:50 12:08:04 38° 343° (NNW) 12:19:19 29.354- 29.394
NANOSAT C BR1 25 Apr 12:14:17 12:18:29 83° 254° (WSW) 12:22:43 145.865
Oscar 19 25 Apr 12:19:22 12:22:48 18° 58° (ENE) 12:26:15 437.125/150
OBJECT BX 25 Apr 12:19:32 12:22:05 18° 295° (WNW) 12:24:39 145.990 - 145.960
BUGSAT 1 25 Apr 12:19:39 12:23:25 35° 69° (ENE) 12:27:11 437.445
Tancredo 1 25 Apr 12:33:26 12:36:20 35° 357° (N) 12:39:14 437.200
AO-85 25 Apr 12:37:11 12:38:40 12° 111° (ESE) 12:40:09 145.980
ISS 25 Apr 12:40:43 12:43:47 37° 356° (N) 12:46:50 437.550
EO-79 25 Apr 12:41:13 12:45:11 40° 262° (W) 12:49:11 145.935-145.965
DUCHIFAT 1 25 Apr 12:45:26 12:49:26 43° 262° (W) 12:53:26 145.980
DELFI C3 25 Apr 12:46:51 12:47:13 10° 302° (WNW) 12:47:34 145.870
DX 1 25 Apr 12:58:14 12:59:19 11° 88° (E) 13:00:23 434.975-435.025
AIST 2D 25 Apr 13:02:39 13:03:31 11° 271° (W) 13:04:23 435.315
O/OREOS (USA 219) 25 Apr 13:08:45 13:12:01 19° 312° (NW) 13:15:19 437.305
ESTCUBE 1 25 Apr 13:12:44 13:17:16 66° 287° (WNW) 13:21:46 437.505/2401.250
SPROUT 25 Apr 13:14:37 13:18:36 37° 97° (E) 13:22:33 437.525
POLYITAN 1 25 Apr 13:21:30 13:24:13 17° 269° (W) 13:26:57 437.675
QB50P2 25 Apr 13:28:46 13:30:51 13° 271° (W) 13:32:56 145.880/145.840
LO-87 25 Apr 13:29:32 13:32:04 18° 295° (WNW) 13:34:34 145.935 - 145.965
VELOX 1 25 Apr 13:33:56 13:38:21 63° 101° (ESE) 13:42:44 145.980
PCSat 25 Apr 13:34:05 13:38:21 24° 252° (WSW) 13:42:35 145.827
AO-7 25 Apr 13:35:31 13:41:26 22° 45° (NE) 13:47:22 .
SO-50 25 Apr 13:42:41 13:45:06 14° 24° (NNE) 13:47:29 436.795
Gurwin Techsat 1B 25 Apr 13:43:27 13:48:36 53° 69° (ENE) 13:53:47 435.225
ITAMSAT 1 25 Apr 13:43:31 13:44:57 11° 52° (NE) 13:46:24 435.822/435.867
BUGSAT 1 25 Apr 13:55:30 13:58:51 23° 266° (W) 14:02:13 437.445
Oscar 19 25 Apr 13:56:22 14:01:32 76° 257° (WSW) 14:06:45 437.125/150
UKube-1 25 Apr 14:02:41 14:06:40 34° 97° (E) 14:10:36 .
Tancredo 1 25 Apr 14:09:34 14:12:37 51° 17° (NNE) 14:15:40 437.200
YUBILEINY 25 Apr 14:12:36 14:18:27 19° 54° (NE) 14:24:15 435.215
RS-15 25 Apr 14:13:31 14:24:48 38° 17° (NNE) 14:35:49 29.354- 29.394
BEESAT 3 25 Apr 14:13:34 14:16:27 20° 113° (ESE) 14:19:21 437.485
AO-85 25 Apr 14:14:16 14:18:30 85° 304° (WNW) 14:22:33 145.980
50 SAT 25 Apr 14:14:33 14:18:03 68° 286° (WNW) 14:21:30 437.505
ISS 25 Apr 14:17:27 14:20:38 51° 15° (NNE) 14:23:50 437.550
DX 1 25 Apr 14:31:43 14:36:06 85° 289° (WNW) 14:40:27 434.975-435.025
SPROUT 25 Apr 14:50:56 14:54:19 24° 295° (WNW) 14:57:43 437.525
ITUPSAT 1 25 Apr 14:55:00 14:56:42 12° 87° (E) 14:58:25 437.325
VELOX 1 25 Apr 15:11:29 15:14:21 17° 300° (WNW) 15:17:11 145.980
ITAMSAT 1 25 Apr 15:18:19 15:23:26 63° 71° (ENE) 15:28:34 435.822/435.867
SO-50 25 Apr 15:22:13 15:26:37 49° 46° (NE) 15:30:59 436.795
Gurwin Techsat 1B 25 Apr 15:24:38 15:28:51 24° 268° (W) 15:33:07 435.225
AO-7 25 Apr 15:24:43 15:32:59 76° 67° (ENE) 15:41:17 .
UKube-1 25 Apr 15:38:56 15:42:34 27° 295° (WNW) 15:46:11 .
Oscar 19 25 Apr 15:40:49 15:41:44 10° 275° (W) 15:42:39 437.125/150
BEESAT 2 25 Apr 15:44:37 15:48:33 63° 123° (ESE) 15:52:33 435.950
Tancredo 1 25 Apr 15:45:36 15:48:29 35° 215° (SW) 15:51:21 437.200
BEESAT 3 25 Apr 15:49:51 15:53:42 50° 312° (NW) 15:57:39 437.485
BEESAT 25 Apr 15:51:06 15:55:36 40° 98° (E) 16:00:05 436.000
ISS 25 Apr 15:54:01 15:57:05 39° 215° (SW) 16:00:09 437.550
AO-85 25 Apr 15:56:52 15:59:28 16° 327° (NNW) 16:02:01 145.980
MOZHAYETS 4 25 Apr 16:00:03 16:03:54 26° 94° (E) 16:07:45
YUBILEINY 25 Apr 16:08:13 16:17:00 74° 78° (ENE) 16:25:48 435.215
DX 1 25 Apr 16:10:05 16:11:34 12° 304° (NW) 16:13:03 434.975-435.025
